Location: Iesi
(43.5167°N, 13.2333°E)
Time: 02:28:03
(UTC+00:00)

Tsikada Rocket - Pass Details

Date: 08 August 2020
Orbit: 957 x 1010 km, 82.9° (Epoch: 19 September)

Event Time Altitude Azimuth Distance (km) Brightness Sun altitude
Rises 21:45:47 0° 355° (N) 3,737 8.2 -27.4°
Reaches altitude 10° 21:48:25 10° 360° (N) 2,777 7.2 -27.6°
Maximum altitude 21:54:41 57° 78° (ENE) 1,159 4.2 -28.1°
Enters shadow 21:54:59 56° 90° (E) 1,165 4.2 -28.1°
